sat.trackr.live / text

‹ back to catalog

STARLINK-35730

NORAD 66273 · 2025-247J

PAYLOAD ACTIVE UNKNOWN

§ Identity

Operator
Country
US
Launch date
2025-10-31
Launch site
AFWTR
Launch vehicle
Mass (kg)
RCS (m²)

Purposes: comms

External: N2YO · Heavens-Above · Gunter

§ Orbital elements

Epoch: 2026-05-25T03:17:34.992384Z

Period
93.85 min
Inclination
53.1594°
Eccentricity
0.0001183
Mean motion
15.34410629 rev/d
Perigee alt
461.9 km
Apogee alt
463.5 km
Semi-major
6,840.8 km
B*
5.8058e-4
RAAN
195.2548°
Arg perigee
78.9225°
Mean anomaly
281.1910°
Rev number
3,280

§ Raw data

STARLINK-357301 66273U 25247J   26145.13721056  .00019297  00000+0  58058-3 0  99932 66273  53.1594 195.2548 0001183  78.9225 281.1910 15.34410629 32803

JSON: /api/v1/satellites/66273 · /tle

For live sub-satellite position, see the globe view (requires WebGL).

§ Visibility from observer

Set your observer location to see the next 7 days of passes ≥ 10°. The values pass through the URL so the page stays shareable.

No JS? Fill the form by hand. The geolocation button needs JavaScript.